Regional Weather Roundup
Issued by NWS

Home | Current Version | Previous Version | Graphics & Text | Print | Product List | Glossary Off
Versions: 1 2 3 4 5 6 7 8 9 10 11 12 13 14 15 16 17 18 19 20 21 22 23 24 25 26 27 28 29 30 31 32 33 34 35 36 37 38 39 40 41 42 43 44 45 46 47 48 49 50

000
ASUS43 KMPX 220301
RWRMN
WEATHER ROUNDUP FOR MINNESOTA
NATIONAL WEATHER SERVICE TWIN CITIES/CHANHASSEN MN
1000 PM CDT THU MAY 21 2015


NOTE: "FAIR" INDICATES FEW OR NO CLOUDS BELOW 12,000 FEET WITH NO
SIGNIFICANT WEATHER AND/OR OBSTRUCTIONS TO VISIBILITY. N/A MEANS
CURRENT SKY AND/OR WEATHER CONDITIONS ARE NOT AVAILABLE.

MNZ060>063-068>070-220400-
   Twin Cities Metro

CITY           SKY/WX    TMP DP  RH WIND       PRES   REMARKS
TWIN CITIES    CLEAR     63  31  30 NW5       30.07R
ST PAUL        CLEAR     58  40  51 CALM      30.07R
CRYSTAL        CLEAR     57  34  41 CALM      30.06R
BLAINE         CLEAR     59  36  41 CALM      30.07R
LAKEVILLE      CLEAR     55  34  44 W3        30.07R
EDEN PRAIRIE   CLEAR     61  34  36 NW5       30.06R
SOUTH ST PAUL  CLEAR     60  36  40 CALM      30.07R
LAKE ELMO      FAIR      55  34  44 CALM      30.07R
$$
MNZ001>005-007-008-013>017-022>024-027-028-220400-
   Northwest Minnesota

CITY           SKY/WX    TMP DP  RH WIND       PRES   REMARKS
BEMIDJI        CLEAR     48  33  55 CALM      30.10R
HALLOCK        PTCLDY    55  36  47 CALM      30.12R
ROSEAU         PTCLDY    55  34  44 NW6       30.11S
WARROAD        PTCLDY    50  43  76 CALM      30.12R
THIEF RVR FALL CLEAR     57  34  41 N8        30.13R
CROOKSTON      CLEAR     55  39  54 N7        30.13R
FOSSTON        CLEAR     52  36  54 CALM      30.12R
DETROIT LAKES  CLEAR     57  37  47 NW3       30.12S
MOORHEAD       CLEAR     55  43  62 NW5       30.13R
PARK RAPIDS    CLEAR     53  34  48 NW5       30.10R
MAHNOMEN       FAIR      55  37  50 NW7       30.11R
$$
MNZ006-009>011-018-025>026-220400-
   North Central Minnesota

CITY           SKY/WX    TMP DP  RH WIND       PRES   REMARKS
BAUDETTE       PTCLDY    49  36  61 CALM      30.10R
FLAG ISLAND    CLEAR     55  37  50 NW7       30.09R
INTL FALLS     CLEAR     43  35  73 CALM      30.08R
WASKISH        CLEAR     54  34  47 CALM      30.10R
BIG FORK       CLEAR     46  30  53 CALM      30.10R
LONGVILLE      CLEAR     46  39  76 CALM      30.10R
GRAND RAPIDS   CLEAR     52  28  40 CALM      30.09R
CRANE LAKE     CLEAR     41  34  75 CALM      30.10R
ORR            CLEAR     46  28  49 CALM      30.07R
COOK           CLEAR     46  30  53 CALM      30.09R
WALKER         FAIR      51  34  51 CALM      30.10R
$$
MNZ012-019>021-037-220400-
   Northeast Minnesota

CITY           SKY/WX    TMP DP  RH WIND       PRES   REMARKS
DULUTH         CLEAR     56  27  32 N5        30.07R
ELY            CLEAR     48  27  43 CALM      30.08R
HIBBING        CLEAR     43  30  60 NW3       30.08R
EVELETH        CLEAR     52  30  43 CALM      30.09R
DULUTH HARBOR  CLEAR     55  36  47 N10       30.06R
TWO HARBORS    CLEAR     57  34  41 N5        30.05R
SILVER BAY     CLEAR     52  28  40 CALM      30.05R
GRAND MARAIS     N/A     45  32  60 N5        30.06R
G MARAIS ARPRT CLEAR     43  21  42 NW5       30.07R
$$
MNZ029>031-032-039>041-046>048-054>057-064-220400-
   West Central Minnesota

CITY           SKY/WX    TMP DP  RH WIND       PRES   REMARKS
FERGUS FALLS   CLEAR     57  36  44 N6        30.12R
WHEATON        CLEAR     55  36  47 CALM      30.14R
MORRIS         CLEAR     57  39  51 NW7       30.11R
ALEXANDRIA     CLEAR     57  40  52 NW5       30.12R
ELBOW LAKE     FAIR      57  37  48 NW7       30.11R
WADENA         FAIR      52  37  58 NW3       30.10R
APPLETON       CLEAR     57  37  47 N7        30.11R
BENSON         CLEAR     54  37  54 CALM      30.11R
ORTONVILLE     CLEAR     57  36  44 N3        30.12R
MADISON        CLEAR     55  36  47 N6        30.12R
WILLMAR        FAIR      59  36  41 NW6       30.12R
$$
MNZ033>034-036-042>043-049>051-058-059-220400-
   Central Minnesota

CITY           SKY/WX    TMP DP  RH WIND       PRES   REMARKS
ST CLOUD       CLEAR     54  38  54 CALM      30.08R
SAUK CENTRE    FAIR      55  37  51 NW6       30.10R
PAYNESVILLE    CLEAR     51  37  57 SW5       30.10R
AITKIN         CLEAR     50  30  46 CALM      30.08R
PINE RIVER     CLEAR     52  37  58 CALM      30.13R
BRAINERD       CLEAR     54  35  48 CALM      30.09R
STAPLES        CLEAR     55  30  38 CALM      30.10R
LONG PRAIRIE   FAIR      55  36  47 W7        30.10R
LITTLE FALLS   CLEAR     52  36  54 CALM      30.09R
LITCHFIELD     CLEAR     59  37  44 W5        30.10R
BUFFALO        CLEAR     56  40  54 CALM      30.09R
MAPLE LAKE     CLEAR     55  41  58 CALM      30.09R
$$
MNZ037-044-045-052-053-220400-
   East Central Minnesota

CITY           SKY/WX    TMP DP  RH WIND       PRES   REMARKS
PRINCETON      CLEAR     52  37  58 CALM      30.08R
MORA           CLEAR     54  36  50 CALM      30.09R
CAMBRIDGE      CLEAR     59  39  47 CALM      30.06R
RUSH CITY      CLEAR     55  37  49 NW3       30.07R
MOOSE LAKE     PTCLDY    54  30  40 N5        30.05R
HINCKLEY       FAIR      55  36  47 NW6       30.07R
CLOQUET        CLEAR     54  28  37 N3        30.07R
MCGREGOR       CLEAR     55  32  41 NW5       30.08R
$$
MNZ071>073-080-081-089-090-097-098-220400-
   Southwest Minnesota

CITY           SKY/WX    TMP DP  RH WIND       PRES   REMARKS
MONTEVIDEO     CLEAR     57  34  41 N6        30.12R
GRANITE FALLS  CLEAR     59  32  36 NW6       30.12R
CANBY          CLEAR     60  29  31 N3        30.13R
MARSHALL       CLEAR     61  28  29 N6        30.11R
REDWOOD FALLS  CLEAR     61  31  32 NW8       30.09R
OLIVIA         CLEAR     54  32  43 NW3       30.10R
PIPESTONE      CLEAR     61  34  36 NE1       30.13R
WINDOM         CLEAR     54  30  40 CALM      30.12R
WORTHINGTON    CLEAR     54  28  37 CALM      30.13R
JACKSON        CLEAR     57  27  30 NW5       30.12R
TRACY          CLEAR     59  31  34 CALM      30.12R
SLAYTON        CLEAR     57  30  36 CALM      30.13R
$$
MNZ065>067-074>077-082>085-091>093-220400-
   South Central Minnesota

CITY           SKY/WX    TMP DP  RH WIND       PRES   REMARKS
MANKATO        FAIR      61  32  33 N6        30.08R
NEW ULM        CLEAR     59  30  33 NW6       30.09R
ST JAMES       CLEAR     59  32  36 W7        30.11R
FAIRMONT       CLEAR     57  28  33 NW6       30.10R
GLENCOE        CLEAR     60  40  48 W6        30.08R
FARIBAULT      FAIR      55  37  50 CALM      30.08R
OWATONNA       CLEAR     57  32  38 CALM      30.08R
WASECA         CLEAR     55  36  47 N5        30.09R
ALBERT LEA     CLEAR     61  34  36 NW5       30.08R
$$
MNZ078>079-086>088-094>096-220400-
   Southeast Minnesota

CITY           SKY/WX    TMP DP  RH WIND       PRES   REMARKS
ROCHESTER      FAIR      56  32  40 NW7       30.08R
RED WING       CLEAR     57  32  38 N5        30.05R
STANTON        CLEAR     58  31  35 NW5       30.06R
DODGE CENTER   PTCLDY    57  36  44 W5        30.08R
WINONA         CLEAR     59  41  51 CALM      30.04R
AUSTIN         CLEAR     57  37  47 NW3       30.07R
PRESTON        CLEAR     57  36  44 NW6       30.07R
$$
ABBREVIATIONS USED IN REMARKS
   TC - TEMPERATURES IN CELSIUS
  WCI - WIND CHILL INDEX
   HX - HEAT INDEX
  VSB - VISIBILITY
$$


USA.gov is the U.S. government's official web portal to all federal, state and local government web resources and services.